Погода в Канибадаме

Таджикистан     40°17′21″N   70°25′34″E
темп.,
°C
ветер,
м/с
пор.,
м/с
влажн.,
%
обл.,
%
осадки,
мм/ч
давл.,
гПа
погр.,
м
20 апреля, вт
вт2023:00+19зюз1129100 0.0 101211
02:00+18зюз2230100 0.0 101111
05:00+17зюз3331100 0.0 101122
08:00+19зсз7731100 0.0 1013772
11:00+22з782864 0.0 10122211
14:00+21з81127100 0.1 10121776
17:00+23з682422 0.1 10091904
20:00+14зюз71369100 0.6 1012371
21 апреля, ср
ср2123:00+16юз51152100 1.1 1011574
02:00+15з9115685 0.1 10121176
05:00+14з91265100 0.4 10131146
08:00+13з91373100 1.1 10141136
11:00+13зюз12165531 2.0 10151090
14:00+16зюз1317475 0.0 10161588
17:00+15зюз1215493 0.0 10171541
20:00+13зюз712560 0.0 1019844
22 апреля, чт
чт2223:00+12зюз712600 0.0 1019440
02:00+11зюз59591 0.0 1019230
05:00+10зюз59572 0.0 1021216
08:00+12з67451 0.0 1023660
11:00+15зсз66381 0.0 1022983
14:00+18зсз89290 0.0 10221441
17:00+17з1112250 0.0 10211090
20:00+14зюз813330 0.0 1024509
23 апреля, пт
пт2323:00+13юз34410 0.0 102456
02:00+11зюз33440 0.0 102428
05:00+11вюв22450 0.0 102411
08:00+14всв45280 0.0 1025510
11:00+18всв55244 0.0 10231290
14:00+21св32170 0.0 10211785
17:00+22св22141 0.0 10201649
20:00+18св22192 0.0 102113
24 апреля, сб
сб2423:00+17вюв22210 0.0 102111
02:00+15вюв22264 0.0 102013
05:00+13всв22311 0.0 102020
08:00+16всв34245 0.0 1021336
11:00+21всв55195 0.0 10191298
14:00+24св43145 0.0 10171659
17:00+24св2212100 0.0 10161509
20:00+21св1117100 0.0 101711